| time (UTC) | temp C | wind direction | speed KPH | gust KPH | rain 1hr cm | rain 24hr cm | rain mn cm | humidity % | barometer mb |
| 20260504140904 | 17 | 360 | 6.4 | 17.7 | 0.00 | 0.00 | 0.00 | 58 | 1013.3 |
| 20260504130218 | 15 | 360 | 11.3 | 27.4 | 0.00 | 0.00 | 0.00 | 72 | 1013.9 |
| 20260504100220 | 9 | 360 | 1.6 | 6.4 | 0.00 | 0.00 | 0.00 | 83 | 1014.4 |
| 20260504081803 | 9 | 360 | 1.6 | 8.0 | 0.00 | 0.00 | 0.00 | 75 | 1014.5 |
| 20260504080903 | 10 | 360 | 3.2 | 9.7 | 0.00 | 0.00 | 0.00 | 74 | 1014.6 |
| 20260504050004 | 5 | 360 | 0.0 | 6.4 | 0.00 | 0.00 | 0.00 | 80 | 1014.2 |
| 20260504045403 | 5 | 360 | 0.0 | 6.4 | 0.00 | 0.00 | 0.00 | 81 | 1014.2 |
| 20260504044504 | 5 | 360 | 0.0 | 1.6 | 0.00 | 0.00 | 0.00 | 81 | 1014.2 |
| 20260504043603 | 5 | 0 | 0.0 | 0.0 | 0.00 | 0.00 | 0.00 | 81 | 1014.2 |
| 20260504042704 | 5 | 0 | 0.0 | 0.0 | 0.00 | 0.00 | 0.00 | 81 | 1014.1 |
| 20260504041804 | 5 | 0 | 0.0 | 0.0 | 0.00 | 0.00 | 0.00 | 80 | 1014.2 |
| 20260504041121 | 5 | 0 | 0.0 | 0.0 | 0.00 | 0.00 | 0.00 | 79 | 1014.1 |
| 20260504040218 | 5 | 0 | 0.0 | 0.0 | 0.00 | 0.00 | 0.00 | 79 | 1014.0 |
| 20260504035404 | 5 | 0 | 0.0 | 0.0 | 0.00 | 0.00 | 0.00 | 78 | 1013.9 |
| 20260504034503 | 5 | 0 | 0.0 | 0.0 | 0.00 | 0.00 | 0.00 | 78 | 1013.8 |
| 20260504033604 | 6 | 0 | 0.0 | 0.0 | 0.00 | 0.00 | 0.00 | 78 | 1013.7 |
| 20260504032703 | 6 | 360 | 0.0 | 1.6 | 0.00 | 0.00 | 0.00 | 77 | 1013.7 |
| 20260504031804 | 6 | 360 | 0.0 | 1.6 | 0.00 | 0.00 | 0.00 | 77 | 1013.6 |
| 20260504030903 | 6 | 360 | 0.0 | 1.6 | 0.00 | 0.00 | 0.00 | 77 | 1013.6 |
| 20260504030219 | 6 | 360 | 0.0 | 1.6 | 0.00 | 0.00 | 0.00 | 76 | 1013.6 |
| 20260504025404 | 6 | 360 | 0.0 | 1.6 | 0.00 | 0.00 | 0.00 | 75 | 1013.6 |
| 20260504024718 | 6 | 360 | 0.0 | 3.2 | 0.00 | 0.00 | 0.00 | 75 | 1013.6 |
| 20260504023603 | 6 | 0 | 0.0 | 0.0 | 0.00 | 0.00 | 0.00 | 73 | 1013.5 |
| 20260504022703 | 6 | 360 | 0.0 | 1.6 | 0.00 | 0.00 | 0.00 | 72 | 1013.6 |
| 20260504022020 | 6 | 360 | 0.0 | 1.6 | 0.00 | 0.00 | 0.00 | 72 | 1013.6 |
| 20260504020903 | 7 | 0 | 0.0 | 0.0 | 0.00 | 0.00 | 0.00 | 70 | 1013.7 |
| 20260504020220 | 7 | 360 | 0.0 | 1.6 | 0.00 | 0.00 | 0.00 | 69 | 1013.7 |
| 20260504015403 | 7 | 0 | 0.0 | 0.0 | 0.00 | 0.00 | 0.00 | 68 | 1013.6 |
| 20260504014504 | 7 | 360 | 0.0 | 1.6 | 0.00 | 0.00 | 0.00 | 67 | 1013.6 |
| 20260504013604 | 7 | 0 | 0.0 | 0.0 | 0.00 | 0.00 | 0.00 | 65 | 1013.5 |
| 20260504012704 | 7 | 0 | 0.0 | 0.0 | 0.00 | 0.00 | 0.00 | 63 | 1013.3 |
| 20260504011803 | 8 | 0 | 0.0 | 0.0 | 0.00 | 0.00 | 0.00 | 62 | 1013.2 |
| 20260504010904 | 8 | 360 | 0.0 | 1.6 | 0.00 | 0.00 | 0.00 | 61 | 1013.1 |
| 20260504010003 | 8 | 360 | 0.0 | 1.6 | 0.00 | 0.00 | 0.00 | 60 | 1013.1 |
| 20260504005403 | 8 | 0 | 0.0 | 0.0 | 0.00 | 0.00 | 0.00 | 57 | 1013.0 |
| 20260504004504 | 9 | 0 | 0.0 | 0.0 | 0.00 | 0.00 | 0.00 | 55 | 1012.9 |
| 20260504003604 | 10 | 0 | 0.0 | 0.0 | 0.00 | 0.00 | 0.00 | 53 | 1012.8 |
| 20260504002704 | 10 | 0 | 0.0 | 0.0 | 0.00 | 0.00 | 0.00 | 53 | 1012.5 |
| 20260504001804 | 11 | 0 | 0.0 | 0.0 | 0.00 | 0.00 | 0.00 | 51 | 1012.5 |
| 20260504000903 | 11 | 0 | 0.0 | 0.0 | 0.00 | 0.00 | 0.00 | 49 | 1012.4 |
| 20260504000003 | 12 | 360 | 1.6 | 4.8 | 0.00 | 0.00 | 0.00 | 47 | 1012.3 |
| 20260503235618 | 12 | 360 | 1.6 | 8.0 | 0.00 | 0.00 | 0.00 | 46 | 1012.3 |
| 20260503234504 | 13 | 360 | 1.6 | 6.4 | 0.00 | 0.00 | 0.00 | 44 | 1012.3 |
| 20260503233604 | 13 | 360 | 3.2 | 8.0 | 0.00 | 0.00 | 0.00 | 40 | 1012.2 |
| 20260503232920 | 13 | 360 | 4.8 | 14.5 | 0.00 | 0.00 | 0.00 | 39 | 1012.2 |
| 20260503232017 | 14 | 360 | 4.8 | 14.5 | 0.00 | 0.00 | 0.00 | 37 | 1012.2 |
| 20260503230904 | 15 | 360 | 4.8 | 14.5 | 0.00 | 0.00 | 0.00 | 35 | 1012.1 |
| 20260503230003 | 15 | 360 | 6.4 | 16.1 | 0.00 | 0.00 | 0.00 | 35 | 1012.0 |
| 20260503225403 | 15 | 360 | 6.4 | 17.7 | 0.00 | 0.00 | 0.00 | 35 | 1012.0 |
| 20260503224503 | 16 | 360 | 8.0 | 19.3 | 0.00 | 0.00 | 0.00 | 34 | 1012.0 |
| 20260503223604 | 16 | 360 | 9.7 | 24.1 | 0.00 | 0.00 | 0.00 | 33 | 1012.0 |
| 20260503222703 | 15 | 360 | 8.0 | 24.1 | 0.00 | 0.00 | 0.00 | 33 | 1012.0 |
| 20260503222017 | 15 | 360 | 9.7 | 20.9 | 0.00 | 0.00 | 0.00 | 35 | 1012.0 |
| 20260503220903 | 16 | 360 | 8.0 | 30.6 | 0.00 | 0.00 | 0.00 | 34 | 1012.0 |
| 20260503220003 | 16 | 360 | 11.3 | 24.1 | 0.00 | 0.00 | 0.00 | 36 | 1012.0 |
| 20260503215403 | 16 | 360 | 9.7 | 24.1 | 0.00 | 0.00 | 0.00 | 35 | 1012.0 |
| 20260503214503 | 16 | 360 | 9.7 | 25.7 | 0.00 | 0.00 | 0.00 | 34 | 1012.0 |
| 20260503213604 | 16 | 360 | 9.7 | 25.7 | 0.00 | 0.00 | 0.00 | 34 | 1012.0 |
| 20260503212703 | 16 | 360 | 8.0 | 24.1 | 0.00 | 0.00 | 0.00 | 37 | 1011.9 |
| 20260503211804 | 16 | 360 | 9.7 | 24.1 | 0.00 | 0.00 | 0.00 | 34 | 1011.9 |
| 20260503210904 | 16 | 360 | 8.0 | 27.4 | 0.00 | 0.00 | 0.00 | 35 | 1012.0 |
| 20260503210005 | 16 | 360 | 9.7 | 27.4 | 0.00 | 0.00 | 0.00 | 34 | 1012.0 |
| 20260503205403 | 16 | 360 | 11.3 | 25.7 | 0.00 | 0.00 | 0.00 | 34 | 1011.9 |
| 20260503204504 | 16 | 360 | 12.9 | 41.8 | 0.00 | 0.00 | 0.00 | 34 | 1012.1 |
| 20260503203603 | 16 | 360 | 11.3 | 24.1 | 0.00 | 0.00 | 0.00 | 34 | 1012.1 |
| 20260503202916 | 16 | 360 | 12.9 | 30.6 | 0.00 | 0.00 | 0.00 | 34 | 1012.1 |
| 20260503202019 | 16 | 360 | 12.9 | 29.0 | 0.00 | 0.00 | 0.00 | 34 | 1012.2 |
| 20260503200904 | 16 | 360 | 11.3 | 33.8 | 0.00 | 0.00 | 0.00 | 38 | 1012.0 |
| 20260503200003 | 16 | 360 | 11.3 | 25.7 | 0.00 | 0.00 | 0.00 | 35 | 1012.2 |
| 20260503195403 | 15 | 360 | 11.3 | 25.7 | 0.00 | 0.00 | 0.00 | 37 | 1012.4 |
| 20260503194503 | 16 | 360 | 11.3 | 25.7 | 0.00 | 0.00 | 0.00 | 36 | 1012.3 |
| 20260503193603 | 15 | 360 | 14.5 | 30.6 | 0.00 | 0.00 | 0.00 | 35 | 1012.3 |
| 20260503192703 | 16 | 331 | 12.9 | 30.6 | 0.00 | 0.00 | 0.00 | 34 | 1012.2 |
| 20260503191804 | 15 | 274 | 12.9 | 27.4 | 0.00 | 0.00 | 0.00 | 38 | 1012.3 |
| 20260503190903 | 15 | 359 | 11.3 | 30.6 | 0.00 | 0.00 | 0.00 | 37 | 1012.5 |
| 20260503190003 | 15 | 360 | 12.9 | 33.8 | 0.00 | 0.00 | 0.00 | 42 | 1012.6 |
| 20260503185404 | 15 | 360 | 12.9 | 33.8 | 0.00 | 0.00 | 0.00 | 38 | 1012.7 |
| 20260503184503 | 15 | 360 | 12.9 | 29.0 | 0.00 | 0.00 | 0.00 | 39 | 1012.8 |
| 20260503183604 | 15 | 360 | 14.5 | 35.4 | 0.00 | 0.00 | 0.00 | 39 | 1013.0 |
| 20260503182704 | 15 | 360 | 11.3 | 32.2 | 0.00 | 0.00 | 0.00 | 38 | 1013.1 |
| 20260503181803 | 15 | 360 | 9.7 | 24.1 | 0.00 | 0.00 | 0.00 | 40 | 1012.9 |
| 20260503180903 | 15 | 360 | 9.7 | 24.1 | 0.00 | 0.00 | 0.00 | 41 | 1012.9 |
| 20260503180220 | 14 | 360 | 9.7 | 24.1 | 0.00 | 0.00 | 0.00 | 43 | 1012.9 |
| 20260503175404 | 13 | 360 | 12.9 | 40.2 | 0.00 | 0.00 | 0.00 | 41 | 1012.9 |
| 20260503174504 | 13 | 360 | 11.3 | 27.4 | 0.00 | 0.00 | 0.00 | 42 | 1013.1 |
| 20260503173603 | 14 | 360 | 12.9 | 29.0 | 0.00 | 0.00 | 0.00 | 45 | 1013.2 |
| 20260503172703 | 13 | 360 | 11.3 | 29.0 | 0.00 | 0.00 | 0.00 | 39 | 1013.1 |
| 20260503171803 | 13 | 360 | 11.3 | 30.6 | 0.00 | 0.00 | 0.00 | 45 | 1013.1 |
| 20260503170904 | 13 | 360 | 11.3 | 29.0 | 0.00 | 0.00 | 0.00 | 40 | 1013.2 |
| 20260503150903 | 11 | 360 | 8.0 | 24.1 | 0.00 | 0.00 | 0.00 | 52 | 1013.6 |